Weather Roundup
Issued by NWS Chicago, IL

Home | Current Version | Previous Version | Text Only | Print | Product List | Glossary Off
Versions: 1 2 3 4 5 6 7 8 9 10 11 12 13 14 15 16 17 18 19 20 21 22 23 24 25 26 27 28 29 30 31 32 33 34 35 36 37 38 39 40 41 42 43 44 45 46 47 48 49 50

000
NZUS59 KLOT 050912
HRRLOT

CHICAGO AREA WEATHER ROUNDUP
NATIONAL WEATHER SERVICE CHICAGO/ROMEOVILLE IL
400 AM CDT SUN JUL 05 2015

NOTE: "FAIR" INDICATES FEW OR NO CLOUDS BELOW 12,000 FEET WITH NO
SIGNIFICANT WEATHER AND/OR OBSTRUCTIONS TO VISIBILITY.

* THESE STATIONS ARE NOT UNDER NWS QUALITY CONTROL. THEY ALSO MAY NOT
  REPORT WEATHER SUCH AS PRECIPITATION OR FOG.

ILZ005-006-012>014-019>023-051000-
NORTHEAST ILLINOIS

CITY           SKY/WX    TMP DP  RH WIND       PRES   REMARKS
OHARE          PTCLDY    62  59  90 CALM      30.06R SMOKE
MIDWAY         PTCLDY    68  60  75 CALM      30.06R
AURORA         CLEAR     60  56  86 CALM      30.07R FOG
LANSING*         N/A     62  59  90 CALM      30.07R FOG
JOLIET*        FOG       60  60  99 CALM      30.07R VSB 1/2
WAUKEGAN       CLEAR     60  57  89 SW3       30.05S FOG
DUPAGE AIRPORT CLEAR     61  58  90 CALM      30.06S FOG
WHEELING       CLEAR     62  57  83 CALM      30.08R HAZE
KANKAKEE*      CLEAR     62  61  98 E3        30.08R FOG
MORRIS*        CLEAR     63  61  93 CALM      30.04S FOG
LEWIS AIRPORT* CLEAR     62  58  90 CALM      30.07S FOG
NORTHERLY IS     N/A     68  58  70 CALM        N/A
$$

WIZ051-052-058>065-066-070>072-051000-
SOUTHEAST WISCONSIN

CITY           SKY/WX    TMP DP  RH WIND       PRES   REMARKS
MILWAUKEE      PTCLDY    66  56  70 CALM      30.05S
KENOSHA*       CLEAR     57  55  93 CALM      30.06S FOG
RACINE*        CLEAR     60  55  83 CALM      30.07S HAZE
BURLINGTON     FOG       55  55  99 CALM      30.05F VSB 1/4
WAUKESHA       CLEAR     59  57  94 CALM      30.06F FOG
WEST BEND      CLEAR     59  59 100 CALM      30.05F FOG
$$

INZ001>003-010>013-019-020-051000-
NORTHWEST INDIANA

CITY           SKY/WX    TMP DP  RH WIND       PRES   REMARKS
GARY*          FOG      N/A N/A N/A CALM      30.07S VSB 3/4
MICHIGAN CITY* NOT AVBL
RENSSELAER*    NOT AVBL
VALPARAISO     CLEAR     60  58  92 CALM      30.08S FOG
$$

LMZ740>746-051000-
SOUTHERN LAKE MICHIGAN

STATION/POSITION TIME  SKY/WX   TEMP WIND        PRES    VSBY
                                AIR  DIR/SP/G
                 (UTC)          (F)  (DEG/KT/KT) (MB)    (MI)
HARRISON CRIB    0800            71  280/  1/  2   N/A
BURNHAM HARBOR   0900            67  160/  2/  4   N/A
CALUMET HARBOR   0800            67  180/  3/  4   N/A
BURNS HARBOR     0800            67  190/  6/  8 1018.6R
MICHIGAN CITY    0800            69  150/  8/ 11   N/A
$$

ABBREVIATIONS USED IN REMARKS
   TC - TEMPERATURE IN CELSIUS
  WCI - WIND CHILL INDEX
   HX - HEAT INDEX
  VSB - VISIBILITY
$$



USA.gov is the U.S. government's official web portal to all federal, state and local government web resources and services.